SCP
0 0 0 0 0 0 0 0 0 0 0 0 0 0 0 -0 0 0 0 0 0 0 0 0 0 0 0 0 0 0 0 0 0 0 0 0 0 0 0 0 0 0 0 0
0 0 0 0 0 0 0 0 0 0 0 0 0 -0 0 0 0 0 0 0 0 0 0 0 0 0 0 0 0 0 0 0 0 0 0 0 0 0 0 0 0 0 0 0
0 0 0 0 0 0 0 0 0 0 0 0 0 0 0 -0 -0 -0 0 0 0 0 0 0 0 0 0 0 0 0 0 0 0 0 0 0 0 0 0 0 0 0 0 0
0 0 0 0 0 0 0 0 0 0 0 0 0 0 0 -0 0 0 0 0 0 0 0 -0 -0 -0 0 0 0 0 0 0 0 0 0 0 0 0 0 0 0 0 0 0
0 0 0 0 0 0 0 0 0 0 0 0 0 0 0 0 0 0 0 0 0 0 0 0 0 0 0 0 0 0 0 0 0 0 0 0 0 0 0 0 0 0 0 0
0 0 0 0 0 0 0 0 0 0 0 0 0 0 0 0 0 0 0 0 0 0 0 0 0 0 0 0 0 0 0 0 0 0 0 0 0 0 0 0 0 0 0 0
0 0 0 0 0 0 0 0 0 0 0 0 0 0 0 0 0 0 0 0 0 0 0 0 0 0 0 0 0 0 0 0 0 0 0 0 0 0 0 0 0 0 0 0
0 0 0 0 0 0 0 0 0 0 0 0 0 0 0 0 0 0 0 -0 -0 0 0 0 0 0 0 0 0 0 0 0 0 0 0 0 0 0 0 0 0 0 0 0
0 0 0 0 0 0 0 0 0 0 0 0 0 0 0 0 0 0 -0 -0 -0 0 0 0 0 0 0 0 0 0 0 0 0 0 0 0 0 0 0 0 0 0 0 0
0 0 0 0 0 0 0 0 0 0 0 0 0 0 0 0 0 0 0 -0 -0 0 0 0 0 0 0 0 0 0 0 0 0 0 0 0 0 0 0 0 0 0 0 0
0 0 0 0 0 0 0 0 0 0 0 0 0 0 0 0 0 0 0 0 0 0 0 0 0 0 0 0 0 0 0 0 0 0 0 0 0 0 0 0 0 0 0 0
0 0 0 0 0 0 0 0 0 0 0 0 0 0 0 0 0 0 0 0 0 0 0 0 0 0 0 0 0 0 0 0 0 0 0 0 0 0 0 0 0 0 0 0
0 0 0 0 0 0 0 0 0 0 0 0 0 0 0 0 0 0 0 0 0 0 0 0 0 0 0 0 0 0 0 0 0 0 0 0 0 0 0 0 0 0 0 0
0 0 0 0 0 0 0 0 0 0 0 0 0 0 0 0 0 0 0 0 0 0 0 0 0 0 0 0 0 0 0 0 0 0 0 0 0 0 0 0 0 0 0 0
0 0 0 0 0 0 0 0 0 0 0 0 0 0 0 0 0 0 0 0 0 0 0 0 0 0 0 0 0 0 0 0 0 0 0 0 0 0 0 0 0 0 0 0
0 0 0 0 0 0 0 0 0 0 0 0 0 0 0 0 0 0 0 0 0 0 0 0 0 0 0 0 0 0 0 0 0 0 0 0 0 0 0 0 0 0 0 0
0 0 0 0 0 0 0 0 0 0 0 0 0 0 0 0 0 0 0 0 0 0 0 0 0 0 0 0 0 0 0 0 0 0 0 0 0 0 0 0 0 0 0 0
0 0 0 0 0 0 0 0 0 0 0 0 0 0 0 0 0 0 0 0 0 0 0 0 0 0 0 0 0 0 0 0 0 0 0 0 0 0 0 0 0 0 0 0
0 0 0 0 0 0 0 0 0 0 0 0 0 0 0 0 0 0 0 0 0 0 0 0 0 0 0 0 0 0 0 0 0 0 0 0 0 0 0 0 0 0 0 0
0 0 0 0 0 0 0 0 0 0 0 0 0 0 0 0 0 0 0 0 0 0 0 0 0 0 0 0 0 0 0 0 0 0 0 0 0 0 0 0 0 0 0 0
0 0 0 0 0 0 0 0 0 0 0 0 0 0 0 0 0 0 0 0 0 0 0 0 0 0 0 0 0 0 0 0 0 0 0 0 0 0 0 0 0 0 0 0
0 0 0 0 0 0 0 0 0 0 0 0 0 0 0 0 0 0 0 0 0 0 0 0 0 0 0 0 0 0 0 0 0 0 0 0 0 0 0 0 0 0 0 0
0 0 0 0 0 0 0 0 0 0 0 0 0 0 0 0 0 0 0 0 0 0 0 0 0 0 0 0 0 0 0 0 0 0 0 0 0 0 0 0 0 0 0 0
0 0 0 0 0 0 0 0 0 0 0 0 0 0 0 0 0 0 0 0 0 0 0 0 0 0 0 0 0 0 0 0 0 0 0 0 0 0 0 0 0 0 0 0
0 0 0 0 0 0 0 0 0 0 0 0 0 0 0 0 0 0 0 0 0 0 0 0 0 0 0 0 0 0 0 0 0 0 0 0 0 0 0 0 0 0 0 0
0 0 0 0 0 0 0 0 0 0 0 0 0 0 0 0 0 0 0 0 0 0 0 0 0 0 0 0 0 0 0 0 0 0 0 0 0 0 0 0 0 0 0 0
0 0 0 0 0 0 0 0 0 0 0 0 0 0 0 0 0 0 0 0 0 0 0 0 0 0 0 0 0 0 0 0 0 0 0 0 0 0 0 0 0 0 0 0
Wind_Speed_500mb
5 7 5 8 8 11 11 7 9 3 21 8 16 19 37 38 36 27 31 33 31 33 37 39 40 43 50 52 50 53 52 54 58 61 66 69 70 72 75 78 79 76 76 77
1 6 11 9 17 16 13 10 17 16 39 23 39 23 21 34 24 28 30 33 38 40 42 44 47 49 51 57 63 59 59 63 64 65 66 68 72 74 74 71 72 75 78 75
6 6 7 13 18 24 12 10 15 21 32 13 10 10 19 20 20 30 36 34 35 38 40 42 45 50 54 59 66 69 66 64 63 64 67 66 67 69 71 69 68 67 67 67
7 5 5 7 4 3 22 19 17 18 9 7 12 28 24 12 27 40 45 44 45 46 48 47 47 48 49 52 57 62 65 63 60 59 58 57 61 66 68 68 68 66 66 63
9 8 13 19 11 12 14 13 11 11 4 9 30 33 16 15 37 46 45 50 50 51 53 56 58 61 61 60 58 57 60 64 65 63 63 60 60 62 66 69 69 67 65 59
6 10 18 11 2 7 15 15 14 18 8 5 14 8 7 28 42 43 50 53 56 54 56 58 59 64 68 67 67 67 62 60 60 66 71 70 67 66 62 63 65 65 64 59
11 8 15 14 15 3 9 12 19 7 8 16 7 17 44 44 42 51 58 60 58 52 52 55 59 64 66 68 70 73 74 74 72 66 62 68 70 69 70 64 59 57 59 56
8 9 22 13 12 18 8 13 17 18 23 21 23 26 39 55 60 67 70 69 65 62 62 62 63 67 68 69 69 70 69 71 69 68 73 71 67 64 61 61 60 54 49 46
17 14 11 15 11 0 9 10 8 8 3 17 25 39 47 61 72 78 76 74 69 65 66 64 66 68 72 70 68 66 66 62 61 59 59 62 63 56 54 51 48 45 39 33
7 11 13 13 6 20 9 15 4 21 31 41 50 51 50 55 67 75 81 80 73 70 68 70 68 67 68 68 68 67 63 59 58 60 60 56 52 48 46 41 36 30 26 24
6 8 1 11 8 16 15 34 36 48 55 54 36 47 53 64 72 79 80 76 74 76 78 78 75 70 66 63 60 60 57 57 61 59 54 50 47 42 38 33 30 23 19 19
9 14 6 22 46 54 43 52 56 51 48 41 42 52 61 76 77 73 77 79 81 79 79 78 75 73 66 62 56 56 61 63 59 54 50 49 43 34 26 19 15 11 9 8
15 43 41 48 42 48 48 46 47 49 52 60 62 63 65 71 77 76 74 75 79 79 76 73 69 64 61 63 60 58 60 56 52 46 40 29 22 15 13 10 10 9 10 11
27 32 32 40 35 38 41 45 50 57 61 64 67 67 67 71 77 77 78 79 79 77 69 66 64 62 61 62 66 64 58 50 42 33 24 17 13 9 6 5 5 5 7 7
50 57 49 46 45 49 50 53 55 57 63 69 72 77 77 80 81 80 78 75 73 71 68 65 66 64 62 60 59 56 47 39 33 28 23 18 14 15 12 10 7 5 6 7
38 46 46 44 45 47 50 54 59 62 63 62 62 64 66 66 69 68 67 63 63 65 65 64 63 60 55 50 43 38 33 30 26 22 19 18 18 17 14 9 7 8 8 9
41 42 41 47 48 52 55 52 51 53 58 63 64 63 65 64 64 58 56 55 55 55 55 53 49 45 39 34 28 23 23 23 20 17 18 18 16 12 7 4 4 3 3 5
48 44 45 50 50 51 54 55 54 53 54 54 55 55 56 54 54 49 45 44 42 40 38 37 35 30 25 22 20 19 21 23 21 19 18 15 11 8 5 4 3 2 2 3
48 41 41 42 46 52 55 52 49 47 44 45 46 45 45 43 40 38 37 36 32 29 25 24 20 18 15 17 18 18 18 17 18 16 13 11 11 10 9 7 5 4 2 1
40 38 40 41 43 46 45 42 43 41 39 38 37 36 32 30 28 28 26 22 21 20 17 12 9 9 12 14 15 16 17 18 18 16 15 13 12 11 10 8 7 6 5 3
35 30 29 32 33 37 38 37 34 32 30 27 26 24 21 21 18 14 13 12 11 9 7 6 5 9 12 13 14 15 16 17 16 15 14 13 11 10 9 7 5 4 4 6
21 20 22 24 26 27 29 30 27 23 19 15 14 13 12 12 9 10 10 9 7 4 5 6 8 12 14 14 15 15 15 14 13 13 11 10 9 7 5 5 6 8 11 15
13 14 16 18 17 19 21 20 17 14 10 8 8 7 8 7 7 7 7 6 5 5 4 6 11 13 13 12 12 11 10 9 7 6 4 4 5 7 10 12 15 19 22 25
10 11 11 11 11 11 13 12 9 8 7 7 9 9 9 10 10 10 9 9 8 7 5 6 7 7 7 7 7 5 2 1 4 7 10 12 15 17 20 22 24 25 25 24
12 10 10 8 6 5 8 7 4 3 3 3 5 6 7 7 7 7 7 7 6 5 5 5 6 6 5 4 4 8 11 14 16 18 19 20 20 19 17 15 14 13 15 18
11 11 11 10 9 10 11 10 5 5 4 4 4 3 3 4 5 6 7 8 9 10 10 10 9 9 11 14 16 18 18 18 17 16 14 12 11 12 14 17 19 22 25 28
13 12 12 11 11 12 11 10 9 9 7 6 4 4 4 5 7 9 11 12 14 14 13 13 15 18 19 19 17 16 14 12 11 11 13 15 18 22 25 28 31 34 38 41
Wind_Direction_500mb
126 135 131 181 194 191 199 176 193 357 299 265 292 279 293 321 338 354 349 348 347 338 331 327 321 310 309 313 312 308 304 297 293 290 289 286 284 281 281 280 278 277 275 274
234 202 197 231 230 222 231 207 257 253 266 287 278 318 13 359 20 23 10 360 353 349 344 338 330 324 316 310 312 310 302 299 296 290 284 283 283 284 283 282 279 277 275 274
258 18 81 307 221 199 202 189 222 243 252 327 6 55 347 343 22 9 3 357 348 343 342 340 336 332 326 315 308 307 306 302 300 299 295 292 288 286 286 286 283 279 275 274
167 49 228 250 87 175 219 240 229 268 328 28 323 315 308 214 3 352 347 340 333 332 326 322 321 320 318 321 319 316 311 307 305 302 300 299 297 294 289 285 283 282 279 275
147 198 313 286 234 177 169 252 221 231 77 358 340 333 335 155 345 337 338 335 330 327 321 315 314 313 313 313 311 315 318 314 310 307 304 302 300 297 292 288 284 281 277 272
136 168 210 224 35 184 104 277 147 146 165 276 344 341 235 322 324 333 334 335 333 326 323 319 317 313 308 310 310 312 306 308 314 316 310 306 305 301 298 293 289 282 275 270
191 214 280 242 181 12 124 243 169 201 283 306 238 262 302 312 320 326 333 334 331 326 324 322 322 316 315 311 309 304 305 304 305 302 305 309 310 308 304 298 290 284 277 271
177 198 250 217 126 171 192 156 185 235 255 266 270 282 299 309 318 322 325 326 325 321 319 320 322 320 318 313 310 306 303 302 300 301 300 296 296 296 295 293 292 286 283 282
185 203 212 133 101 237 174 272 262 213 168 320 301 301 308 311 314 316 319 320 319 314 312 312 317 317 315 316 310 306 304 301 299 299 298 300 296 292 290 284 281 279 281 282
91 235 233 279 66 161 237 214 292 307 311 314 311 307 298 305 308 310 311 314 315 311 309 308 313 312 311 312 310 308 305 305 304 304 303 299 293 288 286 286 282 280 279 277
262 276 287 292 305 128 293 299 298 301 301 301 297 291 299 303 305 306 306 306 305 305 304 306 308 308 306 305 304 303 305 307 309 303 300 296 289 284 279 276 274 268 263 260
211 179 177 271 286 297 293 298 299 297 295 292 298 296 300 300 300 300 300 300 300 300 299 300 302 303 303 303 298 299 301 302 302 298 292 287 280 272 267 257 250 247 231 215
238 271 278 280 283 283 285 285 283 285 288 294 296 295 293 293 293 294 295 297 298 298 297 296 295 296 300 301 296 294 292 290 290 290 287 275 262 247 236 207 169 128 105 101
239 257 270 271 268 271 276 280 284 288 290 289 289 289 289 289 290 291 293 297 298 297 297 294 290 288 291 295 296 292 288 285 282 279 266 254 237 223 216 198 197 163 138 127
250 262 260 261 265 271 278 282 285 288 289 288 287 289 291 291 290 291 292 294 294 295 295 293 290 287 285 286 286 287 282 274 268 259 248 221 211 208 220 205 205 192 150 135
235 245 252 258 264 268 274 281 286 288 289 290 291 292 293 293 293 293 293 293 291 291 290 288 288 288 286 284 282 277 262 253 245 233 222 205 195 196 200 173 150 143 146 149
229 238 250 263 270 275 280 282 285 288 291 294 295 295 295 298 298 299 298 296 293 290 287 285 284 282 280 274 263 248 238 228 204 187 188 183 174 172 161 143 137 134 89 81
246 255 263 268 273 279 284 287 290 292 292 294 295 297 298 299 300 302 302 300 296 290 287 285 281 275 262 245 222 207 199 187 173 170 168 174 176 170 173 180 166 148 133 129
246 253 256 265 274 279 283 289 292 295 296 296 297 297 297 299 300 299 300 296 293 289 288 288 278 260 241 222 194 182 178 174 169 163 166 171 174 179 188 194 195 201 219 231
235 245 256 266 271 277 284 286 292 296 297 299 299 298 296 297 299 295 291 288 289 284 277 269 252 230 212 189 180 172 165 162 162 165 172 177 183 185 185 186 183 181 182 198
226 237 252 266 276 283 286 289 290 292 295 301 306 303 299 295 292 287 270 267 282 263 255 240 219 175 182 162 163 159 157 158 159 162 166 169 170 163 159 165 177 204 245 271
222 242 260 269 276 282 286 285 287 288 294 304 314 314 296 287 275 262 254 257 252 199 218 182 168 153 147 147 146 142 142 146 149 146 141 144 154 164 185 221 252 270 279 283
232 258 267 274 279 281 279 279 278 278 281 281 285 283 266 256 246 240 240 236 221 214 195 171 139 138 131 127 126 123 114 109 124 146 171 215 251 267 279 284 289 292 294 294
242 253 261 270 269 268 270 270 260 257 253 253 247 242 242 238 235 244 241 216 192 189 201 175 155 146 149 138 132 143 168 256 275 274 274 278 283 287 289 291 291 291 292 294
212 220 230 231 239 247 248 241 235 235 227 221 226 223 217 223 233 219 219 222 220 220 225 228 229 220 222 240 274 282 279 278 281 284 285 286 287 290 293 296 301 306 307 306
193 199 211 216 225 234 233 232 214 196 181 165 168 181 202 228 231 234 244 251 259 264 267 267 273 285 295 287 279 278 280 282 284 285 288 295 302 301 301 303 305 303 302 300
186 190 203 208 206 209 210 213 210 207 202 196 196 209 228 244 258 264 267 267 267 266 269 281 284 279 278 281 283 285 285 285 285 287 292 293 294 295 296 297 296 295 295 296
Wind_Speed_850mb
5 7 5 8 8 11 11 7 9 3 21 8 16 19 37 38 36 27 31 33 31 33 37 39 40 43 50 52 50 53 52 54 58 61 66 69 70 72 75 78 79 76 76 77
1 6 11 9 17 16 13 10 17 16 39 23 39 23 21 34 24 28 30 33 38 40 42 44 47 49 51 57 63 59 59 63 64 65 66 68 72 74 74 71 72 75 78 75
6 6 7 13 18 24 12 10 15 21 32 13 10 10 19 20 20 30 36 34 35 38 40 42 45 50 54 59 66 69 66 64 63 64 67 66 67 69 71 69 68 67 67 67
7 5 5 7 4 3 22 19 17 18 9 7 12 28 24 12 27 40 45 44 45 46 48 47 47 48 49 52 57 62 65 63 60 59 58 57 61 66 68 68 68 66 66 63
9 8 13 19 11 12 14 13 11 11 4 9 30 33 16 15 37 46 45 50 50 51 53 56 58 61 61 60 58 57 60 64 65 63 63 60 60 62 66 69 69 67 65 59
6 10 18 11 2 7 15 15 14 18 8 5 14 8 7 28 42 43 50 53 56 54 56 58 59 64 68 67 67 67 62 60 60 66 71 70 67 66 62 63 65 65 64 59
11 8 15 14 15 3 9 12 19 7 8 16 7 17 44 44 42 51 58 60 58 52 52 55 59 64 66 68 70 73 74 74 72 66 62 68 70 69 70 64 59 57 59 56
8 9 22 13 12 18 8 13 17 18 23 21 23 26 39 55 60 67 70 69 65 62 62 62 63 67 68 69 69 70 69 71 69 68 73 71 67 64 61 61 60 54 49 46
17 14 11 15 11 0 9 10 8 8 3 17 25 39 47 61 72 78 76 74 69 65 66 64 66 68 72 70 68 66 66 62 61 59 59 62 63 56 54 51 48 45 39 33
7 11 13 13 6 20 9 15 4 21 31 41 50 51 50 55 67 75 81 80 73 70 68 70 68 67 68 68 68 67 63 59 58 60 60 56 52 48 46 41 36 30 26 24
6 8 1 11 8 16 15 34 36 48 55 54 36 47 53 64 72 79 80 76 74 76 78 78 75 70 66 63 60 60 57 57 61 59 54 50 47 42 38 33 30 23 19 19
9 14 6 22 46 54 43 52 56 51 48 41 42 52 61 76 77 73 77 79 81 79 79 78 75 73 66 62 56 56 61 63 59 54 50 49 43 34 26 19 15 11 9 8
15 43 41 48 42 48 48 46 47 49 52 60 62 63 65 71 77 76 74 75 79 79 76 73 69 64 61 63 60 58 60 56 52 46 40 29 22 15 13 10 10 9 10 11
27 32 32 40 35 38 41 45 50 57 61 64 67 67 67 71 77 77 78 79 79 77 69 66 64 62 61 62 66 64 58 50 42 33 24 17 13 9 6 5 5 5 7 7
50 57 49 46 45 49 50 53 55 57 63 69 72 77 77 80 81 80 78 75 73 71 68 65 66 64 62 60 59 56 47 39 33 28 23 18 14 15 12 10 7 5 6 7
38 46 46 44 45 47 50 54 59 62 63 62 62 64 66 66 69 68 67 63 63 65 65 64 63 60 55 50 43 38 33 30 26 22 19 18 18 17 14 9 7 8 8 9
41 42 41 47 48 52 55 52 51 53 58 63 64 63 65 64 64 58 56 55 55 55 55 53 49 45 39 34 28 23 23 23 20 17 18 18 16 12 7 4 4 3 3 5
48 44 45 50 50 51 54 55 54 53 54 54 55 55 56 54 54 49 45 44 42 40 38 37 35 30 25 22 20 19 21 23 21 19 18 15 11 8 5 4 3 2 2 3
48 41 41 42 46 52 55 52 49 47 44 45 46 45 45 43 40 38 37 36 32 29 25 24 20 18 15 17 18 18 18 17 18 16 13 11 11 10 9 7 5 4 2 1
40 38 40 41 43 46 45 42 43 41 39 38 37 36 32 30 28 28 26 22 21 20 17 12 9 9 12 14 15 16 17 18 18 16 15 13 12 11 10 8 7 6 5 3
35 30 29 32 33 37 38 37 34 32 30 27 26 24 21 21 18 14 13 12 11 9 7 6 5 9 12 13 14 15 16 17 16 15 14 13 11 10 9 7 5 4 4 6
21 20 22 24 26 27 29 30 27 23 19 15 14 13 12 12 9 10 10 9 7 4 5 6 8 12 14 14 15 15 15 14 13 13 11 10 9 7 5 5 6 8 11 15
13 14 16 18 17 19 21 20 17 14 10 8 8 7 8 7 7 7 7 6 5 5 4 6 11 13 13 12 12 11 10 9 7 6 4 4 5 7 10 12 15 19 22 25
10 11 11 11 11 11 13 12 9 8 7 7 9 9 9 10 10 10 9 9 8 7 5 6 7 7 7 7 7 5 2 1 4 7 10 12 15 17 20 22 24 25 25 24
12 10 10 8 6 5 8 7 4 3 3 3 5 6 7 7 7 7 7 7 6 5 5 5 6 6 5 4 4 8 11 14 16 18 19 20 20 19 17 15 14 13 15 18
11 11 11 10 9 10 11 10 5 5 4 4 4 3 3 4 5 6 7 8 9 10 10 10 9 9 11 14 16 18 18 18 17 16 14 12 11 12 14 17 19 22 25 28
13 12 12 11 11 12 11 10 9 9 7 6 4 4 4 5 7 9 11 12 14 14 13 13 15 18 19 19 17 16 14 12 11 11 13 15 18 22 25 28 31 34 38 41
Wind_Direction_850mb
126 135 131 181 194 191 199 176 193 357 299 265 292 279 293 321 338 354 349 348 347 338 331 327 321 310 309 313 312 308 304 297 293 290 289 286 284 281 281 280 278 277 275 274
234 202 197 231 230 222 231 207 257 253 266 287 278 318 13 359 20 23 10 360 353 349 344 338 330 324 316 310 312 310 302 299 296 290 284 283 283 284 283 282 279 277 275 274
258 18 81 307 221 199 202 189 222 243 252 327 6 55 347 343 22 9 3 357 348 343 342 340 336 332 326 315 308 307 306 302 300 299 295 292 288 286 286 286 283 279 275 274
167 49 228 250 87 175 219 240 229 268 328 28 323 315 308 214 3 352 347 340 333 332 326 322 321 320 318 321 319 316 311 307 305 302 300 299 297 294 289 285 283 282 279 275
147 198 313 286 234 177 169 252 221 231 77 358 340 333 335 155 345 337 338 335 330 327 321 315 314 313 313 313 311 315 318 314 310 307 304 302 300 297 292 288 284 281 277 272
136 168 210 224 35 184 104 277 147 146 165 276 344 341 235 322 324 333 334 335 333 326 323 319 317 313 308 310 310 312 306 308 314 316 310 306 305 301 298 293 289 282 275 270
191 214 280 242 181 12 124 243 169 201 283 306 238 262 302 312 320 326 333 334 331 326 324 322 322 316 315 311 309 304 305 304 305 302 305 309 310 308 304 298 290 284 277 271
177 198 250 217 126 171 192 156 185 235 255 266 270 282 299 309 318 322 325 326 325 321 319 320 322 320 318 313 310 306 303 302 300 301 300 296 296 296 295 293 292 286 283 282
185 203 212 133 101 237 174 272 262 213 168 320 301 301 308 311 314 316 319 320 319 314 312 312 317 317 315 316 310 306 304 301 299 299 298 300 296 292 290 284 281 279 281 282
91 235 233 279 66 161 237 214 292 307 311 314 311 307 298 305 308 310 311 314 315 311 309 308 313 312 311 312 310 308 305 305 304 304 303 299 293 288 286 286 282 280 279 277
262 276 287 292 305 128 293 299 298 301 301 301 297 291 299 303 305 306 306 306 305 305 304 306 308 308 306 305 304 303 305 307 309 303 300 296 289 284 279 276 274 268 263 260
211 179 177 271 286 297 293 298 299 297 295 292 298 296 300 300 300 300 300 300 300 300 299 300 302 303 303 303 298 299 301 302 302 298 292 287 280 272 267 257 250 247 231 215
238 271 278 280 283 283 285 285 283 285 288 294 296 295 293 293 293 294 295 297 298 298 297 296 295 296 300 301 296 294 292 290 290 290 287 275 262 247 236 207 169 128 105 101
239 257 270 271 268 271 276 280 284 288 290 289 289 289 289 289 290 291 293 297 298 297 297 294 290 288 291 295 296 292 288 285 282 279 266 254 237 223 216 198 197 163 138 127
250 262 260 261 265 271 278 282 285 288 289 288 287 289 291 291 290 291 292 294 294 295 295 293 290 287 285 286 286 287 282 274 268 259 248 221 211 208 220 205 205 192 150 135
235 245 252 258 264 268 274 281 286 288 289 290 291 292 293 293 293 293 293 293 291 291 290 288 288 288 286 284 282 277 262 253 245 233 222 205 195 196 200 173 150 143 146 149
229 238 250 263 270 275 280 282 285 288 291 294 295 295 295 298 298 299 298 296 293 290 287 285 284 282 280 274 263 248 238 228 204 187 188 183 174 172 161 143 137 134 89 81
246 255 263 268 273 279 284 287 290 292 292 294 295 297 298 299 300 302 302 300 296 290 287 285 281 275 262 245 222 207 199 187 173 170 168 174 176 170 173 180 166 148 133 129
246 253 256 265 274 279 283 289 292 295 296 296 297 297 297 299 300 299 300 296 293 289 288 288 278 260 241 222 194 182 178 174 169 163 166 171 174 179 188 194 195 201 219 231
235 245 256 266 271 277 284 286 292 296 297 299 299 298 296 297 299 295 291 288 289 284 277 269 252 230 212 189 180 172 165 162 162 165 172 177 183 185 185 186 183 181 182 198
226 237 252 266 276 283 286 289 290 292 295 301 306 303 299 295 292 287 270 267 282 263 255 240 219 175 182 162 163 159 157 158 159 162 166 169 170 163 159 165 177 204 245 271
222 242 260 269 276 282 286 285 287 288 294 304 314 314 296 287 275 262 254 257 252 199 218 182 168 153 147 147 146 142 142 146 149 146 141 144 154 164 185 221 252 270 279 283
232 258 267 274 279 281 279 279 278 278 281 281 285 283 266 256 246 240 240 236 221 214 195 171 139 138 131 127 126 123 114 109 124 146 171 215 251 267 279 284 289 292 294 294
242 253 261 270 269 268 270 270 260 257 253 253 247 242 242 238 235 244 241 216 192 189 201 175 155 146 149 138 132 143 168 256 275 274 274 278 283 287 289 291 291 291 292 294
212 220 230 231 239 247 248 241 235 235 227 221 226 223 217 223 233 219 219 222 220 220 225 228 229 220 222 240 274 282 279 278 281 284 285 286 287 290 293 296 301 306 307 306
193 199 211 216 225 234 233 232 214 196 181 165 168 181 202 228 231 234 244 251 259 264 267 267 273 285 295 287 279 278 280 282 284 285 288 295 302 301 301 303 305 303 302 300
186 190 203 208 206 209 210 213 210 207 202 196 196 209 228 244 258 264 267 267 267 266 269 281 284 279 278 281 283 285 285 285 285 287 292 293 294 295 296 297 296 295 295 296